Location: Lapeyrugue
(44.7276°N, 2.5476°E)
Time: 10:31:31
(UTC+00:00)

Daily predictions for brighter satellites

Satellite Brightness Start Highest point End
(mag) Time Altitude Azimuth Time Altitude Azimuth Time Altitude Azimuth
Cosmos 2369 Rocket 2.3 19:50:48 10° NNW 19:56:23 64° ENE 20:01:57 10° SE
Cosmos 1656 Rocket 3.7 19:51:15 10° NNW 19:56:45 83° ENE 20:02:17 10° SSE
Cosmos 44 3.8 19:54:18 10° NW 19:59:00 55° WSW 20:03:23 10° SSE
Cosmos 2034 Rocket 4.1 19:58:28 10° N 20:04:44 85° W 20:11:02 10° S
Cosmos 2084 3.8 20:02:18 10° NW 20:05:57 48° WSW 20:09:37 10° SSE
Meteor 2-6 Rocket 4.4 20:01:21 10° SSE 20:06:41 49° E 20:11:56 10° NNE
USA 229 DEB 4.1 20:00:36 10° NW 20:08:05 79° NE 20:16:11 10° SE
USA 229 4.1 20:00:41 10° NW 20:08:11 79° NE 20:16:18 10° SE
Cosmos 1371 Rocket 4.4 20:03:00 10° NNW 20:08:21 70° WSW 20:13:39 10° S
MOS 1 4.4 20:05:24 10° SSE 20:11:01 68° ENE 20:16:39 10° N
Cosmos 1536 4.3 20:11:57 10° NNE 20:15:03 22° ENE 20:17:51 11° ESE
Cosmos 1378 4.5 20:12:19 10° SSW 20:15:22 36° WNW 20:18:27 10° N
SeaSat 1 3.8 20:11:53 10° S 20:16:20 34° WSW 20:20:49 10° NW
Cosmos 1726 2.9 20:16:40 10° NNE 20:19:23 26° ENE 20:21:30 14° SE
USA 306 3.4 20:17:16 10° NW 20:20:54 44° NNE 20:24:39 10° ESE
USA 59 Rocket 2.1 20:19:14 10° N 20:21:45 16° NE 20:24:44 10° E
Tsikada Rocket 4.0 20:16:35 10° S 20:22:46 90° SSW 20:29:06 10° N
Cosmos 1943 3.2 20:19:50 10° S 20:25:26 64° ESE 20:31:03 10° NNE
IRS-1C Rocket 4.2 20:21:23 10° SSE 20:26:34 65° ENE 20:31:48 10° N
Cosmos 1842 Rocket 3.8 20:22:53 10° S 20:27:11 53° E 20:31:29 10° NNE
USA 276 2.9 20:26:25 10° W 20:28:14 22° SW 20:29:24 15° S
Spot 2 Rocket 4.2 20:25:05 12° SE 20:29:13 38° ENE 20:33:51 10° N
Okean 3 Rocket 3.7 20:25:01 10° N 20:29:21 57° E 20:33:10 13° SSE
Resurs 01 Rocket 3.3 20:25:46 10° SSW 20:29:43 31° W 20:33:41 10° NNW
IRS-1A Rocket 4.4 20:24:47 10° SSE 20:30:18 66° ENE 20:35:48 10° N
ISS -3.8 20:28:02 10° WNW 20:31:24 87° NNE 20:33:56 16° ESE
ARGOS Delta rocket 4.2 20:27:17 12° SSE 20:31:45 51° ENE 20:36:22 10° N
Okean O Rocket 3.4 20:36:05 10° SSW 20:39:57 29° W 20:43:51 10° NW
SPOT 3 Rocket 4.2 20:36:08 15° SE 20:40:03 41° ENE 20:44:52 10° N
Cosmos 1340 4.3 20:38:21 10° NNE 20:40:37 17° ENE 20:42:01 14° E
Sich 1 4.2 20:38:37 10° NNE 20:42:25 28° ENE 20:44:55 17° ESE
Cosmos 2221 3.8 20:39:39 10° SSW 20:43:44 42° WNW 20:47:52 10° N
Meteor 1-27 Rocket 4.3 20:40:55 14° SSE 20:45:04 37° E 20:50:07 10° NNE
USA 281 4.0 20:43:30 14° ESE 20:48:47 41° NE 20:54:52 10° NNW
ATLAS 3B R/B 4.4 20:42:54 10° NW 20:49:32 31° WSW 20:56:01 10° SSW
Ariane Rocket 3.2 20:48:20 17° SE 20:52:05 58° ENE 20:57:05 10° N
MetOp-B 4.4 20:46:52 10° S 20:52:10 69° WSW 20:57:32 10° NNW
GEOS 3 Rocket 4.2 20:55:01 10° NE 20:59:40 34° ESE 21:03:30 14° S
Terra 1.7 20:59:36 19° SSE 21:03:00 85° ENE 21:07:43 10° NNW
Cosmos 1340 Rocket 3.3 21:03:13 25° SE 21:04:59 40° E 21:08:44 10° NNE
MOS 1 Rocket 3.7 21:02:03 21° SSE 21:05:28 64° ENE 21:10:46 10° N
Cosmos 1452 Rocket 3.6 21:02:31 10° NNW 21:07:45 72° WSW 21:11:26 20° S
Cosmos 1743 Rocket 4.0 21:04:29 10° N 21:08:46 48° ENE 21:10:55 26° SE
Lacrosse 5 rocket 4.3 21:09:39 10° NW 21:12:17 16° N 21:14:55 10° NNE
Helios 1B 4.5 21:10:02 10° NNE 21:14:21 83° ESE 21:17:40 17° SSW
ERS-1 Rocket 3.3 21:12:27 17° S 21:16:17 63° WSW 21:21:18 10° NNW
Cosmos 1408 Rocket 3.7 21:14:05 10° NNW 21:18:33 75° W 21:21:17 23° S
Meteor 2-10 4.1 21:15:34 10° N 21:21:05 80° ENE 21:24:12 26° SSE
USA 245 3.5 21:22:29 25° WSW 21:22:56 28° W 21:25:01 10° NW
Cosmos 1626 3.9 21:24:36 15° ENE 21:24:36 15° ENE 21:26:03 10° NE
SL-8 R/B 4.3 21:20:03 10° W 21:24:44 57° N 21:29:26 10° ENE
Nadezhda 4 Rocket 4.0 21:21:16 20° S 21:25:42 70° E 21:31:56 10° NNE
Cosmos 2279 Rocket 4.4 21:19:40 10° NNW 21:25:44 59° W 21:30:55 15° SSW
Spot 1 3.9 21:21:56 10° NNE 21:26:02 66° ESE 21:28:04 29° S
Cosmos 614 Rocket 4.2 21:25:40 26° SSE 21:28:14 49° ESE 21:33:16 10° NNE
SPOT 5 4.4 21:27:08 10° SSW 21:30:57 26° W 21:34:41 10° NW
Meteor 1-19 Rocket 4.3 21:28:38 16° S 21:33:30 88° WNW 21:39:15 10° N
Cosmos 1603 4.3 21:29:51 10° SW 21:35:25 59° WNW 21:41:06 10° NNE
Cosmos 1833 Rocket 4.1 21:35:26 19° ESE 21:35:45 19° E 21:39:36 10° NE
Okean 1 4.0 21:33:59 17° SSW 21:36:42 50° WNW 21:40:30 10° N
Cosmos 1151 Rocket 2.9 21:37:10 34° S 21:38:59 75° E 21:43:19 10° NNE
Cosmos 2369 Rocket 4.2 21:35:57 10° NW 21:39:50 20° W 21:43:44 10° SW
Cosmos 1975 3.3 21:38:35 10° N 21:42:22 44° ENE 21:43:09 38° ESE
Meteor 1-11 Rocket 4.4 21:38:09 10° NNW 21:43:39 52° W 21:47:34 20° SSW
Cosmos 1328 Rocket 4.2 21:45:12 34° ESE 21:45:50 36° E 21:49:48 10° NNE
Meteor 2-17 Rocket 4.4 21:41:44 20° S 21:46:07 84° W 21:52:12 10° N
FALCON 9 R/B 4.2 21:41:15 10° WSW 21:47:26 38° S 21:58:41 19° SE
Cosmos 1302 Rocket 4.0 21:45:18 10° NNW 21:50:29 74° WSW 21:52:42 35° S
Cosmos 1536 4.4 21:47:39 10° NNW 21:51:01 28° W 21:53:08 17° SW
Cosmos 1992 Rocket 4.2 21:46:00 10° NNW 21:51:10 58° ENE 21:53:10 35° SE
Cosmos 1726 4.4 21:50:38 10° NW 21:52:17 14° W 21:53:57 10° WSW
Cosmos 1500 Rocket 4.5 21:49:17 10° NNW 21:53:20 41° W 21:55:23 24° SSW
USA 306 3.4 21:51:00 10° WNW 21:54:34 36° SW 21:54:47 35° SW
Cosmos 1656 4.0 21:50:26 10° NNW 21:55:48 55° ENE 21:58:06 33° ESE
Cosmos 1766 4.4 21:55:48 10° NNE 21:59:04 28° ENE 21:59:18 28° E
Cosmos 1805 3.0 21:57:17 10° N 22:01:00 81° W 22:01:33 62° S
Lacrosse 4 Rocket 1.8 21:57:28 10° NNW 22:01:29 52° NE 22:02:26 42° ESE
Cosmos 1733 4.2 21:59:07 10° NNW 22:02:20 35° W 22:03:12 30° SW
H-2A R/B 3.8 22:02:15 26° E 22:03:11 28° ENE 22:06:50 10° N
Cosmos 1470 Rocket 4.4 21:59:17 10° N 22:03:23 35° ENE 22:04:11 32° E
Cosmos 2026 Rocket 4.0 22:02:10 33° S 22:05:12 75° E 22:11:26 10° NNE
IRIDIUM 104 4.2 22:02:17 10° N 22:07:32 85° E 22:09:23 42° S
ISS -1.3 22:05:49 10° W 22:06:48 13° WSW 22:06:48 13° WSW
Cosmos 1633 Rocket 3.1 22:06:14 10° N 22:10:39 67° E 22:11:28 53° SE
NOSS 3-3 (A) 3.6 22:08:04 31° SSW 22:10:40 68° ESE 22:16:49 10° NE
Cosmos 1627 Rocket 4.4 22:07:49 33° S 22:10:52 81° E 22:17:11 10° N
USA 59 Rocket 0.2 22:07:33 10° NW 22:11:40 77° SW 22:13:06 47° SSE
Landsat 5 4.5 22:09:01 10° N 22:12:32 38° WNW 22:14:26 22° SW
Cosmos 1666 Rocket 3.4 22:08:24 10° N 22:12:44 85° E 22:13:32 59° SSE
Orbus 7S? 4.1 22:06:42 10° SSW 22:13:47 38° E 22:15:58 10° ENE
NOSS 2-1 (E) 3.7 22:09:38 10° NW 22:13:44 74° SW 22:15:08 47° SSE
Cosmos 1340 3.9 22:11:58 10° NNW 22:14:53 27° W 22:15:25 26° WSW
IRIDIUM 114 4.3 22:11:26 10° N 22:16:41 81° W 22:18:30 42° S
Cosmos 1140 Rocket 4.4 22:19:19 31° ESE 22:19:32 31° E 22:24:05 10° NE
Cosmos 220 Rocket 4.4 22:18:09 31° SW 22:20:00 60° WNW 22:24:17 10° NNE
CZ-2C R/B 3.5 22:18:20 10° NNE 22:22:51 78° ESE 22:23:38 59° S
Cosmos 1818 3.5 22:21:17 26° SW 22:24:26 88° NW 22:29:57 10° NE
IRIDIUM 103 4.5 22:20:37 10° N 22:25:49 67° W 22:27:38 40° SSW
NOSS 2-1 (D) 4.0 22:22:20 10° NW 22:26:23 55° SW 22:27:17 47° SSW
ALOS 2 3.9 22:26:21 26° E 22:27:15 28° ENE 22:30:59 10° N
BREEZE-M DEB (TANK) 4.3 22:31:06 30° E 22:31:06 30° E 22:34:22 10° ENE
USA 281 3.9 22:30:22 29° SSW 22:33:12 44° WSW 22:39:29 10° NW
Cosmos 1697 Rocket 3.3 22:27:54 10° NNW 22:33:21 46° ENE 22:35:28 32° ESE
Meteor 2-4 Rocket 4.2 22:33:19 28° SW 22:36:26 60° WNW 22:42:19 10° N
Cosmos 1674 3.4 22:37:26 39° NE 22:37:26 39° NE 22:40:03 10° NNE
GEOS 3 Rocket 4.5 22:32:48 10° NNE 22:37:47 48° NW 22:42:40 10° WSW
Cosmos 1553 Rocket 3.9 22:31:56 10° N 22:38:00 72° E 22:39:56 45° SSE
Cosmos 1607 4.2 22:37:13 43° SSE 22:38:41 51° ESE 22:44:57 10° NE
Terra 4.4 22:39:57 10° WSW 22:41:12 11° W 22:42:27 10° WNW
NOSS 3-3 (C) 3.8 22:38:08 26° SW 22:41:22 81° NW 22:47:43 10° NE
Cosmos 1980 Rocket 3.7 22:36:34 10° N 22:41:29 29° NE 22:44:38 18° E
Cosmos 1066 Rocket 4.2 22:41:55 44° SSW 22:43:52 88° W 22:49:47 10° N
Cosmos 2285 Rocket 4.4 22:44:28 41° SE 22:45:46 46° ESE 22:51:47 10° NNE
Cosmos 407 Rocket 4.2 22:49:43 38° ESE 22:49:56 38° ESE 22:54:46 10° NE
ARIANE 5 R/B 2.8 22:50:12 54° SW 22:50:35 56° W 22:54:51 10° NNW
Lacrosse 5 rocket 4.0 22:48:57 10° NNW 22:52:00 19° NNE 22:54:58 10° ENE
Cosmos 1908 4.2 22:51:29 10° N 22:54:20 35° ENE 22:54:20 35° ENE
Cosmos 1626 3.6 22:57:25 25° WNW 22:57:25 25° WNW 23:00:07 10° NNW
Cosmos 2251 Rocket 3.9 23:01:47 44° ESE 23:02:02 44° ESE 23:07:02 10° NNE
CZ-3 Stage 3 4.2 22:41:36 10° WSW 23:02:22 35° S 23:03:03 34° S
SL-8 R/B 4.0 23:02:50 10° WNW 23:07:34 64° NNE 23:10:29 23° E
Cosmos 1707 3.0 23:09:21 58° NNE 23:09:21 58° NNE 23:12:21 10° N
BREEZE-M DEB (TANK) 4.1 23:08:52 10° WNW 23:14:08 16° E 23:15:39 10° E
Cosmos 2266 Rocket 3.9 23:12:28 51° SSE 23:14:02 72° E 23:20:17 10° NNE
Spot 4 3.7 23:13:59 66° SW 23:14:26 71° WSW 23:19:13 10° NNW
Cosmos 1441 Rocket 4.1 23:11:38 10° N 23:14:30 39° NE 23:14:30 39° NE
Cosmos 1842 3.6 23:15:46 54° NW 23:15:46 54° NW 23:19:02 10° N
Cosmos 1655 Rocket 4.3 23:15:56 43° SE 23:17:32 54° E 23:23:44 10° NNE
Celestis-02/Orion 38 4.5 23:16:42 61° SSE 23:17:40 88° WSW 23:22:58 10° NNW
Cosmos 1833 Rocket 2.9 23:17:04 39° SW 23:19:06 66° WNW 23:24:42 10° NNE
Cosmos 2082 Rocket 2.7 23:23:06 41° ESE 23:23:32 42° ESE 23:28:53 10° NE
Cosmos 2360 4.5 23:18:41 10° NW 23:24:12 52° WSW 23:25:03 48° SW
ATLAS CENTAUR R/B 4.4 23:11:48 10° NW 23:25:58 80° SW 23:31:47 32° SE
CZ-2C R/B 4.2 23:27:24 31° ESE 23:29:14 43° ENE 23:44:14 10° N
Cosmos 1515 Rocket 4.5 23:28:43 36° W 23:29:16 37° WNW 23:33:18 10° N
Cosmos 1300 4.1 23:28:08 10° NNE 23:30:52 28° ENE 23:30:52 28° ENE
Cosmos 2228 Rocket 3.9 23:31:44 40° E 23:31:44 40° E 23:35:55 10° NNE
Meteor 1-22 Rocket 4.1 23:27:33 10° N 23:32:53 72° ENE 23:33:54 57° SE
SL-08 ROCKET BODY 4.4 23:33:08 53° S 23:34:46 89° W 23:41:00 10° N
Meteor 1-15 Rocket 4.1 23:31:29 10° N 23:37:09 79° E 23:38:16 58° SSE
H-2A R/B 3.9 23:38:15 27° W 23:38:15 27° W 23:41:43 10° NW
H-2A R/B 2.3 23:34:07 10° NNE 23:38:23 59° E 23:38:23 59° E
Lacrosse 4 Rocket 3.6 23:36:52 10° WNW 23:38:21 15° W 23:38:21 15° W
Cosmos 1733 Rocket 3.9 23:35:34 10° N 23:39:40 39° ENE 23:39:58 39° E
Cosmos 1869 Rocket 3.6 23:38:14 10° NNW 23:42:30 69° W 23:42:30 69° W
Cosmos 1470 4.1 23:41:21 10° NNW 23:43:59 29° WNW 23:43:59 29° WNW
Cosmos 1400 Rocket 3.0 23:54:09 65° NE 23:54:09 65° NE 23:57:41 10° NNE
